#timestamp,LO_Frequency,Hit 
1503536415.4,286047001.6,N
1503536435.2,286047001.4,N
1503536455.0,286047001.3,N
1503536455.9,286047001.3,N
1503536475.8,286047001.6,N
1503536495.6,286047001.8,N
1503536515.5,286047001.9,N
1503536535.3,286047003.9,N
1503536555.1,286047004.4,N
1503536575.9,286047002.0,N
1503536595.7,286047004.8,N
1503536615.5,286047003.8,N
1503536635.4,286047001.7,N
1503536655.2,286047001.4,N
1503536675.1,286047004.0,N
1503536676.0,286047004.0,N
1503536695.8,286047001.8,N
1503536715.6,286046999.8,N
1503536735.5,286047000.1,N
1503536755.3,286047001.6,N
1503536775.1,286047001.9,N
1503536795.9,286047004.3,N
1503536815.7,286047001.5,N
1503536835.6,286047004.0,N
1503536855.4,286047004.0,N
1503536875.2,286047002.7,N
1503536895.1,286047002.8,N
1503536896.0,286047002.8,N
1503536915.8,286047000.1,N
1503536935.7,286046999.9,N
1503536955.5,286047002.7,N
1503536975.3,286046999.7,N
1503536995.2,286047004.3,N
1503537015.0,286047003.1,N
1503537015.9,286047003.1,N
1503537035.7,286047003.8,N
1503537055.6,286047001.3,N
1503537075.4,286047001.4,N
1503537095.3,286047003.1,N
1503537115.1,286047003.6,N
1503537116.0,286047003.6,N
1503537135.8,286047001.7,N
1503537155.7,286047001.5,N
1503537175.5,286047003.6,N
1503537195.3,286047002.9,N
1503537215.2,286047005.6,P
1503537235.0,286047002.7,N
1503537235.9,286047002.7,N
1503537255.8,286047001.1,N
1503537275.6,286047000.6,N
1503537295.4,286047000.3,N
1503537315.3,286046998.6,N
1503537335.1,286047000.5,N
1503537355.9,286047000.2,N
1503537375.7,286046998.9,N
1503537395.5,286046996.5,N
1503537415.4,286047000.3,N
1503537435.2,286047001.8,N
1503537455.0,286047003.6,N
1503537455.9,286047003.6,N
1503537475.8,286047003.9,N
1503537495.6,286047005.5,N
1503537515.5,286047001.5,N
1503537535.3,286047004.3,N
1503537555.1,286047003.7,N
1503537575.9,286047005.9,N
1503537595.7,286047004.1,N
1503537615.5,286047002.5,N
1503537635.4,286047001.9,N
1503537655.2,286047002.5,N
1503537675.1,286047005.4,N
1503537676.0,286047005.4,N
1503537695.8,286047003.4,N
1503537715.6,286047001.7,N
1503537735.5,286047001.7,N
1503537755.3,286047003.8,N
1503537775.2,286047001.8,N
1503537795.9,286047002.1,N
1503537815.7,286047004.0,N
1503537835.6,286047001.3,N
1503537855.4,286047003.1,N
1503537875.2,286047003.3,N
1503537895.1,286047003.4,N
1503537896.0,286047003.4,N
1503537915.8,286047004.5,N
1503537935.7,286047007.3,P
1503537955.5,286047006.0,N
1503537975.3,286047005.1,N
1503537995.2,286047007.2,P
1503538015.0,286047002.3,N
1503538015.9,286047002.3,N
1503538035.8,286046998.5,N
1503538055.6,286046998.5,N
1503538075.4,286047001.1,N
1503538095.3,286047001.2,N
1503538115.1,286046998.7,N
1503538135.8,286046999.1,N
1503538155.7,286046997.4,N
1503538175.5,286046997.9,N
1503538195.4,286046998.0,N
1503538215.2,286046996.8,N
1503538235.0,286046999.6,N
1503538235.9,286046999.6,N
1503538255.8,286046996.7,N
1503538275.6,286046999.6,N
1503538295.4,286047001.2,N
1503538315.3,286046999.0,N
1503538335.1,286046998.8,N
1503538355.9,286046999.0,N
1503538375.7,286046996.6,N
1503538395.5,286046997.7,N
1503538415.4,286046997.7,N
1503538435.2,286046998.4,N
1503538455.0,286047001.1,N
1503538455.9,286047001.1,N
1503538475.8,286046998.6,N
1503538495.6,286046998.8,N
1503538515.5,286047000.0,N
1503538535.3,286047000.0,N
1503538555.1,286047000.6,N
1503538575.9,286046998.1,N
1503538595.7,286046997.1,N
1503538615.5,286046999.4,N
1503538635.4,286046999.0,N
1503538655.2,286046999.5,N
1503538675.1,286046999.6,N
1503538676.0,286046999.6,N
1503538695.8,286046997.7,N
1503538715.6,286046994.9,P
1503538735.5,286046996.9,N
1503538755.3,286046999.3,N
1503538775.2,286046998.7,N
1503538795.9,286046995.5,N
1503538815.7,286046995.1,N
1503538835.6,286046995.7,N
1503538855.4,286046996.2,N
1503538875.2,286046995.5,N
1503538895.1,286046994.0,P
1503538896.0,286046994.0,P
1503538915.8,286046998.8,N
1503538935.7,286046999.1,N
1503538955.5,286047000.8,N
1503538975.3,286047001.1,N
1503538995.2,286047001.2,N
1503539015.0,286047002.8,N
1503539015.9,286047002.8,N
1503539035.8,286047002.1,N
1503539055.6,286047001.2,N
1503539075.4,286047000.6,N
1503539095.3,286046998.9,N
1503539115.1,286047002.7,N
1503539135.8,286047000.4,N
1503539155.7,286047000.5,N
1503539175.5,286046998.6,N
1503539195.4,286046998.5,N
1503539215.2,286047000.1,N
1503539235.0,286047000.8,N
1503539235.9,286047000.8,N
1503539255.8,286046998.2,N
1503539275.6,286047000.8,N
1503539295.5,286046999.8,N
1503539315.3,286047000.9,N
1503539335.1,286047002.3,N
1503539355.9,286047000.0,N
1503539375.7,286046998.8,N
1503539395.5,286047002.6,N
1503539415.4,286047001.9,N
1503539435.2,286046998.2,N
1503539455.1,286046998.2,N
1503539456.0,286046998.2,N
1503539475.8,286047000.4,N
1503539495.6,286047002.8,N
1503539515.5,286047002.1,N
1503539535.3,286047003.0,N
1503539555.1,286047004.7,N
1503539575.9,286047007.0,P
1503539595.7,286047005.8,N
1503539615.6,286047005.9,N
1503539635.4,286047001.4,N
1503539655.2,286046999.7,N
1503539675.1,286047000.9,N
1503539676.0,286047000.9,N
1503539695.8,286046999.0,N
1503539715.7,286047000.2,N
1503539735.5,286047001.5,N
1503539755.3,286047001.4,N
1503539775.2,286047003.8,N
1503539795.9,286047005.6,N
1503539815.7,286047005.5,N
1503539835.6,286047004.5,N
1503539855.4,286047004.5,N
1503539875.3,286047005.2,N
1503539895.1,286047003.5,N
1503539896.0,286047003.5,N
1503539915.8,286047001.7,N
1503539935.7,286047004.4,N
1503539955.5,286047001.4,N
1503539975.3,286047003.5,N
1503539995.2,286047006.0,N
